DateTimeUTC,F1_A11,F1_S11,BsB_S11,BsG_S11,BsR_S11,BbsB_S11,BbsG_S11,BbsR_S11,BaB_A11,BaG_A11,BaR_A11,Tu_S11,T_S11,Uu_S11,U_S11,P_S11,T1_A11
2021-05-30T20:00:00Z,00000200,20000000,,,,,,,0000.28,-000.12,0000.03,19.1,25.8,05.3,03.5,0658.4,31.1
2021-05-30T20:01:00Z,00000200,20010000,,,,,,,0000.03,0000.06,-000.09,19.1,25.8,05.0,03.3,0658.4,31.1
2021-05-30T20:02:00Z,00000200,20010000,,,,,,,-000.12,-000.18,0000.07,19.0,25.8,05.0,03.3,0658.4,31.1
2021-05-30T20:03:00Z,00000200,60000000,,,,,,,0000.20,0000.23,0000.03,19.0,25.8,05.0,03.3,0658.4,31.1
2021-05-30T20:04:00Z,00000200,40000000,0001.56,0001.03,0000.54,0000.94,0000.06,0000.60,0000.19,0000.08,0000.29,19.2,25.6,05.0,03.4,0659.3,31.1
2021-05-30T20:05:00Z,00000200,00000000,0000.94,0000.75,0000.93,0000.45,0000.29,-000.19,0000.29,0000.68,0000.10,19.2,25.6,05.1,03.5,0659.3,31.1
2021-05-30T20:06:00Z,00000200,00000000,0001.40,0000.90,0000.60,0000.77,0000.08,0000.23,0000.28,0000.24,0000.44,19.2,25.6,05.1,03.4,0659.3,31.1
2021-05-30T20:07:00Z,00000200,00000000,0001.70,0001.09,0000.50,0000.23,0000.38,0000.10,0000.66,0000.35,-000.11,19.2,25.6,05.1,03.5,0659.3,31.1
2021-05-30T20:08:00Z,00000200,00000000,0001.72,0000.72,0001.01,0000.21,0000.12,0000.03,0000.49,0000.47,0000.45,19.2,25.6,05.2,03.5,0659.3,31.1
2021-05-30T20:09:00Z,00000200,00000000,0001.31,0000.97,0000.88,0000.78,0000.06,-000.14,-000.03,0000.25,0000.29,19.2,25.6,05.2,03.5,0659.3,31.1
2021-05-30T20:10:00Z,00000200,00000000,0001.93,0001.06,0000.95,0000.85,0000.11,-000.13,0000.64,0000.13,0000.50,19.2,25.6,05.1,03.5,0659.3,31.1
2021-05-30T20:11:00Z,00000200,00000000,0001.74,0001.17,0000.41,0000.42,-000.05,0000.10,0000.31,0000.35,0000.19,19.2,25.6,05.1,03.5,0659.3,31.1
2021-05-30T20:12:00Z,00000200,00000000,0001.26,0000.90,0000.66,0000.44,0000.19,0000.07,0000.06,0000.25,0000.35,19.2,25.5,05.1,03.5,0659.3,31.1
2021-05-30T20:13:00Z,00000200,00000000,0001.45,0001.18,0000.63,0000.54,0000.09,0000.22,0000.56,0000.10,-000.27,19.2,25.6,05.1,03.4,0659.3,31.1
2021-05-30T20:14:00Z,00000200,00000000,0001.51,0001.20,0000.57,0000.79,0000.35,-000.11,0000.02,0000.27,-000.08,19.2,25.5,05.0,03.4,0659.3,31.1
2021-05-30T20:15:00Z,00000200,00000000,0001.14,0000.82,0000.65,0000.26,0000.04,0000.08,0000.29,0000.50,0000.41,19.2,25.5,05.0,03.4,0659.3,31.1
2021-05-30T20:16:00Z,00000200,00000000,0001.82,0001.12,0000.88,0000.76,0000.35,-000.02,0000.85,0000.42,0000.57,19.2,25.5,05.0,03.4,0659.3,31.1
2021-05-30T20:17:00Z,00000200,00000000,0000.54,0001.02,0000.64,0000.91,0000.23,0000.03,-000.12,0000.36,0000.22,19.2,25.5,05.0,03.4,0659.3,31.1
2021-05-30T20:18:00Z,00000200,00000000,0001.34,0001.03,0000.58,0000.10,0000.19,-000.15,0000.66,0000.30,0000.29,19.3,25.5,04.9,03.4,0659.3,31.1
2021-05-30T20:19:00Z,00000200,00000000,0001.22,0001.32,0000.83,0000.14,0000.15,-000.05,0000.03,0000.31,0000.17,19.2,25.5,05.0,03.4,0659.3,31.1
2021-05-30T20:20:00Z,00000200,00000000,0001.29,0001.20,0000.65,0000.90,0000.27,0000.34,0000.09,0000.18,0000.03,19.2,25.5,05.0,03.4,0659.3,31.1
2021-05-30T20:21:00Z,00000200,00000000,0001.56,0000.91,0000.33,0000.04,-000.03,0000.23,0000.55,0000.05,0000.61,19.2,25.5,05.0,03.4,0659.3,31.1
2021-05-30T20:22:00Z,00000200,00000000,0000.91,0001.04,0000.67,0000.69,0000.13,0000.11,0000.49,0000.19,-000.05,19.2,25.5,04.9,03.4,0659.3,31.1
2021-05-30T20:23:00Z,00000200,00000000,0001.12,0000.99,0000.79,0000.79,-000.01,0000.08,0000.50,0000.75,0000.23,19.2,25.5,05.0,03.4,0659.3,31.1
2021-05-30T20:24:00Z,00000200,00000000,0001.12,0000.82,0000.39,0000.50,-000.01,0000.35,0000.27,0000.32,0000.41,19.2,25.5,04.9,03.4,0659.3,31.1
2021-05-30T20:25:00Z,00000200,00000000,0000.90,0001.15,0000.34,0000.48,0000.11,0000.03,0000.24,0000.20,0000.31,19.2,25.5,05.0,03.4,0659.3,31.1
2021-05-30T20:26:00Z,00000200,00000000,0000.95,0001.08,0000.76,0000.34,0000.25,0000.11,0000.48,0000.25,0000.07,19.2,25.5,05.0,03.4,0659.3,31.1
2021-05-30T20:27:00Z,00000200,00000000,0001.34,0000.99,0000.54,0000.57,0000.08,0000.11,0000.20,0000.22,0000.06,19.2,25.5,05.0,03.4,0659.3,31.1
2021-05-30T20:28:00Z,00000200,00000000,0001.86,0000.88,0000.62,0000.88,0000.31,0000.09,0000.19,0000.33,0000.44,19.2,25.5,04.9,03.4,0659.3,31.1
2021-05-30T20:29:00Z,00000200,00000000,0001.11,0000.96,0000.69,0000.38,0000.15,0000.00,0000.16,0000.24,0000.00,19.2,25.5,04.9,03.3,0659.3,31.1
2021-05-30T20:30:00Z,00000200,00000000,0001.14,0000.79,0000.93,0000.82,0000.02,-000.15,0000.59,0000.56,0000.28,19.2,25.5,04.8,03.3,0659.3,31.1
2021-05-30T20:31:00Z,00000200,00000000,0001.29,0001.09,0000.49,0001.01,0000.14,0000.26,0000.33,0000.04,0000.44,19.2,25.5,04.8,03.3,0659.3,31.1
2021-05-30T20:32:00Z,00000200,00000000,0000.89,0000.88,0000.85,0000.16,0000.29,0000.08,0000.23,0000.51,0000.00,19.2,25.5,04.9,03.3,0659.3,31.1
2021-05-30T20:33:00Z,00000200,00000000,0001.27,0000.98,0000.46,0000.61,-000.25,0000.09,0000.25,0000.52,0000.47,19.2,25.5,04.8,03.3,0659.3,31.1
2021-05-30T20:34:00Z,00000200,00000000,0001.89,0001.10,0000.67,0000.78,0000.03,-000.12,0000.44,-000.05,0000.01,19.2,25.5,04.8,03.3,0659.3,31.1
2021-05-30T20:35:00Z,00000200,00000000,0001.09,0000.96,0000.80,0001.30,0000.22,0000.05,0000.18,0000.26,0000.32,19.2,25.5,04.7,03.2,0659.3,31.1
2021-05-30T20:36:00Z,00000200,00000000,0000.99,0000.85,0000.56,0001.00,0000.14,0000.31,0000.54,0000.47,0000.42,19.2,25.5,04.7,03.2,0659.3,31.1
2021-05-30T20:37:00Z,00000200,00000000,0001.69,0000.71,0000.47,0000.81,0000.01,-000.02,0000.13,0000.11,0000.18,19.2,25.5,04.9,03.3,0659.3,31.1
2021-05-30T20:38:00Z,00000200,00000000,0000.95,0000.83,0000.57,0000.43,0000.20,0000.05,0000.53,0000.40,0000.14,19.2,25.5,04.8,03.3,0659.3,31.1
2021-05-30T20:39:00Z,00000200,00000000,0001.40,0001.08,0000.72,0000.31,0000.02,0000.22,0000.09,-000.01,0000.16,19.2,25.5,04.7,03.2,0659.3,31.1
2021-05-30T20:40:00Z,00000200,00000000,0000.92,0001.23,0000.61,0000.52,0000.46,-000.20,0000.40,0000.54,0000.37,19.2,25.5,04.8,03.3,0659.3,31.1
2021-05-30T20:41:00Z,00000200,00000000,0001.49,0001.05,0000.61,0000.24,0000.26,0000.22,0000.24,0000.24,0000.10,19.2,25.5,04.7,03.2,0659.3,31.1
2021-05-30T20:42:00Z,00000200,00000000,0001.76,0000.88,0000.69,0000.28,0000.41,0000.25,0000.43,0000.44,0000.11,19.2,25.5,04.6,03.2,0659.3,31.1
2021-05-30T20:43:00Z,00000200,00000000,0001.25,0001.13,0000.81,0000.66,0000.14,0000.35,0000.33,0000.37,0000.82,19.2,25.5,04.6,03.1,0659.3,31.1
2021-05-30T20:44:00Z,00000200,00000000,0001.01,0001.18,0000.91,0000.53,0000.14,0000.08,0000.33,-000.20,-000.26,19.2,25.5,04.5,03.1,0659.3,31.1
2021-05-30T20:45:00Z,00000200,00000000,0000.97,0001.06,0000.55,0000.48,0000.12,0000.31,0000.04,0000.28,0000.19,19.2,25.5,04.6,03.2,0659.3,31.1
2021-05-30T20:46:00Z,00000200,00000000,0001.19,0000.99,0000.78,0000.25,0000.05,-000.18,0000.31,0000.48,0000.47,19.2,25.5,04.6,03.1,0659.3,31.1
2021-05-30T20:47:00Z,00000200,00000000,0000.66,0000.96,0000.87,0000.37,0000.16,0000.40,0000.63,0000.54,-000.24,19.2,25.5,04.5,03.1,0659.3,31.1
2021-05-30T20:48:00Z,00000200,00000000,0000.63,0001.13,0000.38,0000.65,-000.13,-000.29,0000.27,0000.02,0000.40,19.2,25.5,04.5,03.1,0659.3,31.1
2021-05-30T20:49:00Z,00000200,00000000,0000.97,0001.04,0000.42,0000.11,0000.06,0000.33,0000.20,0000.23,0000.36,19.2,25.5,04.5,03.1,0659.3,31.1
2021-05-30T20:50:00Z,00000200,00000000,0002.05,0001.10,0000.39,-000.17,0000.14,0000.02,0000.35,0000.25,0000.23,19.2,25.5,04.5,03.1,0659.3,31.1
2021-05-30T20:51:00Z,00000200,00000000,0001.51,0001.23,0000.89,0000.49,0000.11,0000.34,0000.36,0000.44,-000.23,19.2,25.4,04.5,03.1,0659.3,31.1
2021-05-30T20:52:00Z,00000200,00000000,0000.87,0001.00,0000.34,0000.11,0000.06,0000.16,0000.61,0000.40,0000.60,19.2,25.4,04.4,03.0,0659.3,31.1
2021-05-30T20:53:00Z,00000200,00000000,0001.29,0000.99,0000.40,0000.47,0000.26,0000.32,-000.06,0000.19,0000.40,19.2,25.4,04.5,03.1,0659.4,31.1
2021-05-30T20:54:00Z,00000200,00000000,0001.22,0001.22,0000.66,0000.78,0000.04,-000.09,0000.50,0000.28,0000.08,19.2,25.4,04.5,03.1,0659.3,31.1
2021-05-30T20:55:00Z,00000200,00000000,0001.39,0001.18,0000.41,0001.01,0000.05,0000.21,0000.14,0000.56,0000.25,19.2,25.4,04.5,03.1,0659.4,31.1
2021-05-30T20:56:00Z,00000200,00000000,0001.51,0000.81,0000.70,0000.63,0000.21,0000.29,0000.43,0000.18,0000.16,19.1,25.4,04.4,03.0,0659.4,31.1
2021-05-30T20:57:00Z,00000200,40000000,,,,,,,0000.30,0000.04,0000.35,19.2,25.5,04.1,02.8,0659.5,31.1
2021-05-30T20:58:00Z,00000200,60000000,,,,,,,-000.36,-000.23,-000.29,18.9,25.6,04.5,03.0,0658.5,31.1
2021-05-30T20:59:00Z,00000200,20000000,,,,,,,-000.17,-000.28,-000.14,18.9,25.7,04.3,02.8,0658.4,31.1
